This demonstration page uses our WeatherBlox Daily Observations layout. Learn more.

Left ArrowRight Arrow

Hourly Observations for November 28, 2016

Temp ( °F °C ) Dew Point ( °F °C ) Humidity (%) Winds ( mph kmh ) Pressure ( in mb ) Visibility ( mi km ) Precip ( " mm )
12:53 am 00:53 Clear 50 10 32 0 50 50 NNW 10 17 29.58 1002 10 16 0.00 0.00
1:53 am 01:53 Clear 51 10.6 29 -1.7 43 43 WNW 9 15 29.57 1002 10 16 0.00 0.00
2:53 am 02:53 Clear 45 7.2 31 -0.6 58 58 S 6 9 29.59 1002 10 16 0.00 0.00
3:53 am 03:53 Clear 48 8.9 28 -2.2 46 46 W 13 20 29.57 1001 10 16 0.00 0.00
4:53 am 04:53 Cloudy 49 9.4 29 -1.7 46 46 WSW 9 15 29.58 1002 10 16 0.00 0.00
5:53 am 05:53 Mostly Clear 49 9.4 28 -2.2 44 44 W 12 19 29.60 1002 10 16 0.00 0.00
6:53 am 06:53 Clear 48 8.9 28 -2.2 46 46 WSW 12 19 29.62 1003 10 16 0.00 0.00
7:53 am 07:53 Sunny 45 7.2 29 -1.7 54 54 W 7 11 29.63 1003 10 16 0.00 0.00
8:53 am 08:53 Sunny 52 11.1 28 -2.2 40 40 W 18 30 29.62 1003 10 16 0.00 0.00
9:53 am 09:53 Sunny 56 13.3 29 -1.7 36 36 W 30 48 29.62 1003 10 16 0.00 0.00
10:53 am 10:53 Sunny 58 14.4 28 -2.2 32 32 W 25 41 29.62 1003 10 16 0.00 0.00
11:53 am 11:53 Sunny 59 15 28 -2.2 31 31 W 28 44 29.62 1003 10 16 0.00 0.00
12:53 pm 12:53 Sunny 61 16.1 25 -3.9 25 25 W 24 39 29.57 1001 10 16 0.00 0.00
1:53 pm 13:53 Sunny 62 16.7 23 -5 22 22 W 32 52 29.54 1000 10 16 0.00 0.00
2:53 pm 14:53 Sunny 61 16.1 21 -6.1 21 21 W 32 52 29.53 1000 10 16 0.00 0.00
3:53 pm 15:53 Sunny 63 17.2 20 -6.7 19 19 W 26 43 29.51 999 10 16 0.00 0.00
4:53 pm 16:53 Sunny 62 16.7 19 -7.2 19 19 W 22 35 29.49 999 10 16 0.00 0.00
5:53 pm 17:53 Clear 60 15.6 20 -6.7 21 21 W 18 30 29.49 999 10 16 0.00 0.00
6:53 pm 18:53 Clear 59 15 23 -5 25 25 W 26 43 29.50 999 10 16 0.00 0.00
7:53 pm 19:53 Mostly Cloudy 59 15 23 -5 25 25 WNW 24 39 29.50 999 10 16 0.00 0.00
8:53 pm 20:53 Cloudy 58 14.4 22 -5.6 25 25 W 16 26 29.52 1000 10 16 0.00 0.00
9:53 pm 21:53 Cloudy 56 13.3 24 -4.4 29 29 WSW 10 17 29.55 1001 10 16 0.00 0.00
10:53 pm 22:53 Cloudy 55 12.8 25 -3.9 31 31 W 12 19 29.55 1001 10 16 0.00 0.00
11:53 pm 23:53 Clear 47 8.3 27 -2.8 46 46 SSW 7 11 29.58 1002 10 16 0.00 0.00

Powered by AerisWeather